[[{"header":{"parameterUnit":"m.s-1","parameterCategory":1,"la1":30.2991,"la2":30.254,"lo1":-89.0895,"lo2":-89.0444,"dy":0.0017,"dx":0.0017,"nx":28,"ny":28,"refTime":"2024-08-08T09:00:00:Z","depth":0,"parameterNumber":2,"parameterNumberName":"U-component_of_WINDS"},"data":[0,0,0,0,0,0,0,0,0,0,0,0,0,0,0,0,0,0,0,0,0,0,0,0,0,0,0,0,0,0,0,0,0,0,0,0,0,0,0,0,0,0,0,0,0,0,0,0,0,0,0,0,0,0,0,0,0,0,1.6842,1.6842,0,1.6878,1.6879,1.6879,1.6854,1.6853,1.6852,1.685,1.6889,1.6891,1.6893,0,0,0,0,0,0,0,0,0,0,0,0,0,1.6752,1.6754,1.6842,1.6842,1.6842,1.6878,1.6879,1.6879,1.6854,1.6853,1.6851,1.685,1.6888,1.689,1.6893,0,0,0,0,0,0,0,0,0,0,0,0,0,1.679,1.6754,1.6841,1.6834,1.6834,1.6878,1.6879,1.6879,1.6854,1.6853,1.6851,1.6849,1.6887,1.689,1.6893,1.6947,0,0,1.6903,1.6904,0,0,0,0,0,0,0,0,1.6788,1.6793,1.6835,1.6835,1.6835,1.686,1.6861,1.6902,1.6855,1.6847,1.685,1.6848,1.688,1.6884,1.6895,1.6948,1.695,1.6903,1.6905,1.6906,1.6907,0,0,0,0,0,0,0,1.6785,1.6792,1.6856,1.6835,1.6835,1.683,1.6833,1.6869,1.6873,1.6847,1.6845,1.685,1.688,1.6892,1.6895,1.6951,1.6903,1.6906,1.6908,1.6909,1.7053,1.7054,0,0,0,0,0,0,1.6783,1.679,1.6855,1.6857,1.6807,1.6833,1.6837,1.6853,1.6872,1.6873,1.6852,1.6849,1.6887,1.6892,1.6897,1.6961,1.6906,1.6909,1.6911,1.7051,1.7053,1.7055,0,0,0,0,0,0,1.6781,1.6789,1.6853,1.6823,1.6831,1.6836,1.6855,1.6855,1.6867,1.6875,1.6876,1.6863,1.6886,1.6892,1.6935,1.6962,1.6911,1.6913,1.7048,1.7051,1.7054,1.7091,0,0,0,0,0,0,1.6779,1.6789,1.6808,1.6824,1.6832,1.689,1.6857,1.6857,1.6872,1.6869,1.6886,1.6887,1.6885,1.693,1.6938,1.6966,1.6916,1.7046,1.705,1.7053,1.7087,1.7095,1.7101,0,0,0,0,0,1.6776,1.6817,1.6809,1.6817,1.6857,1.6892,1.6897,1.6894,1.6874,1.6895,1.6901,1.6887,1.6958,1.6935,1.6943,1.6972,1.7044,1.7049,1.7053,1.7084,1.7093,1.7101,0,0,0,0,0,0,1.6804,1.6819,1.681,1.6858,1.6874,1.6888,1.6913,1.6903,1.6925,1.6921,1.6917,1.6921,1.6966,1.6973,1.6947,1.7026,1.6998,1.7005,1.7019,1.7028,1.7035,1.7032,1.6918,0,0,0,0,0,1.6816,1.6843,1.6854,1.6895,1.6903,1.6907,1.6922,1.6918,1.6935,1.6942,1.6951,1.6968,1.6994,1.7012,1.7037,1.7089,1.7093,1.7113,1.712,1.7126,1.7131,1.7161,1.7171,1.707,1.707,1.7069,0,0,1.684,1.6852,1.6869,1.6901,1.6913,1.6942,1.6913,1.6944,1.6965,1.6946,1.6987,1.6995,1.7014,1.7062,1.7084,1.707,1.7161,1.7132,1.7136,1.7138,1.7167,1.7176,1.7185,1.7073,1.7072,1.7072,0,0,1.69,1.6911,1.6946,1.696,1.6979,1.6981,1.699,1.7006,1.701,1.7052,1.7039,1.7065,1.711,1.7124,1.7138,1.7206,1.7194,1.7214,1.725,1.7279,1.7287,1.7294,1.732,1.7328,1.722,1.722,1.722,0,1.6928,1.697,1.6966,1.6999,1.7014,1.6999,1.7036,1.7049,1.7075,1.7086,1.7071,1.7129,1.714,1.7193,1.7209,1.7221,1.7231,1.7211,1.7287,1.7294,1.73,1.7324,1.7333,1.7222,1.7222,1.7221,1.7221,0,1.7004,1.7033,1.706,1.7086,1.7105,1.7139,1.7142,1.7161,1.7157,1.7161,1.7205,1.7219,1.7247,1.7259,1.7254,1.7311,1.7302,1.7287,1.7258,1.7312,1.7335,1.7344,1.7225,1.7224,1.7224,1.7223,0,0,1.7079,1.7105,1.7115,1.7128,1.7149,1.7172,1.7207,1.7235,1.7252,1.7272,1.7301,1.7341,1.7328,1.7343,1.7341,1.7366,1.7421,1.7348,1.7348,1.7361,1.7486,1.7497,1.7508,1.7414,1.7416,1.7417,1.7484,0,1.714,1.72,1.72,1.7256,1.7284,1.7272,1.7303,1.732,1.7326,1.7351,1.7358,1.7387,1.7366,1.7376,1.7401,1.7409,1.7446,1.7404,1.7442,1.7444,1.7437,1.7519,1.7531,1.7594,1.7493,1.7495,1.7496,0,1.7218,1.7241,1.73,1.7319,1.7331,1.7359,1.7385,1.741,1.743,1.7432,1.7451,1.7445,1.7482,1.7454,1.7505,1.7477,1.7493,1.7499,1.7502,1.7505,1.7472,1.7525,1.7614,1.7623,1.7509,1.7508,1.7507,0,1.7268,1.7314,1.7356,1.7367,1.739,1.741,1.7421,1.7439,1.7456,1.748,1.7492,1.7519,1.7535,1.7557,1.7559,1.7538,1.7612,1.7583,1.7616,1.7616,1.7631,1.763,1.7723,1.7642,1.7641,1.7641,1.7641,0,1.7336,1.7373,1.7379,1.7404,1.7446,1.7446,1.7487,1.7496,1.7513,1.7541,1.7533,1.7559,1.7561,1.7589,1.7591,1.7634,1.7641,1.7645,1.7645,1.7646,1.7645,1.7656,1.7651,1.7644,1.7643,1.7643,1.7642,0,1.7398,1.7404,1.7449,1.7468,1.7473,1.7503,1.752,1.7545,1.7551,1.7587,1.7596,1.7605,1.7638,1.7643,1.7681,1.7683,1.7735,1.773,1.7728,1.7727,1.776,1.7757,1.7863,1.7878,1.7786,1.7787,1.7788,0,1.7441,1.7469,1.7492,1.751,1.7522,1.7551,1.757,1.7571,1.7591,1.7617,1.7639,1.7671,1.7697,1.775,1.7761,1.779,1.7787,1.7822,1.7791,1.7791,1.7788,1.7786,1.7789,1.7828,1.7829,1.783,1.783,0,1.7516,1.7518,1.7544,1.7573,1.7595,1.7617,1.7638,1.7654,1.7659,1.7681,1.7715,1.7735,1.7775,1.7807,1.7837,1.7849,1.7841,1.784,1.785,1.785,1.7848,1.785,1.7744,1.7838,1.7837,1.7836,1.7836,1.7836,1.757,1.7595,1.7615,1.7646,1.7662,1.7683,1.7708,1.7718,1.7746,1.7778,1.7778,1.7815,1.7837,1.7876,1.789,1.792,1.7909,1.7922,1.7925,1.7928,1.7932,1.7844,1.7926,1.7925,1.7925,1.7925,1.7925,0,1.7645,1.7658,1.7686,1.7716,1.7741,1.7732,1.7756,1.7777,1.781,1.783,1.7856,1.7896,1.7928,1.7942,1.7974,1.7995,1.7993,1.8003,1.8002,1.8005,1.794,1.7929,1.8005,1.8005,1.8005,1.8005,1.8005,1.8005,1.7687,1.7729,1.7734,1.7786,1.7799,1.7835,1.7849,1.7869,1.7886,1.793,1.7957,1.7966,1.7985,1.8019,1.8048,1.8052,1.8064,1.8076,1.8078,1.8017,1.8009,1.8001,1.7991,1.8079,1.8079,1.8141,1.8142,1.8142]},{"header":{"parameterUnit":"m.s-1","parameterCategory":1,"la1":30.2991,"la2":30.254,"lo1":-89.0895,"lo2":-89.0444,"dy":0.0017,"dx":0.0017,"nx":28,"ny":28,"refTime":"2024-08-08T09:00:00:Z","depth":0,"parameterNumber":3,"parameterNumberName":"V-component_of_WINDS"},"data":[0,0,0,0,0,0,0,0,0,0,0,0,0,0,0,0,0,0,0,0,0,0,0,0,0,0,0,0,0,0,0,0,0,0,0,0,0,0,0,0,0,0,0,0,0,0,0,0,0,0,0,0,0,0,0,0,0,0,-2.391,-2.3911,0,-2.3931,-2.3931,-2.3931,-2.3927,-2.3927,-2.3927,-2.3926,-2.3946,-2.3946,-2.3947,0,0,0,0,0,0,0,0,0,0,0,0,0,-2.3868,-2.3868,-2.391,-2.3911,-2.3911,-2.3931,-2.3931,-2.3931,-2.3927,-2.3927,-2.3926,-2.3926,-2.3945,-2.3946,-2.3947,0,0,0,0,0,0,0,0,0,0,0,0,0,-2.3887,-2.3869,-2.391,-2.3911,-2.3912,-2.3931,-2.3931,-2.3932,-2.3927,-2.3927,-2.3926,-2.3926,-2.3945,-2.3946,-2.3947,-2.3966,0,0,-2.3951,-2.3952,0,0,0,0,0,0,0,0,-2.3886,-2.3888,-2.3911,-2.3911,-2.3912,-2.3926,-2.3923,-2.3943,-2.3928,-2.3921,-2.3926,-2.3926,-2.3939,-2.3941,-2.3946,-2.3967,-2.3968,-2.3952,-2.3952,-2.3953,-2.3953,0,0,0,0,0,0,0,-2.3884,-2.3888,-2.3918,-2.3911,-2.3912,-2.3911,-2.3913,-2.3927,-2.3933,-2.3922,-2.3922,-2.3924,-2.3939,-2.3945,-2.3947,-2.3968,-2.3951,-2.3953,-2.3953,-2.3954,-2.4008,-2.4009,0,0,0,0,0,0,-2.3883,-2.3886,-2.3918,-2.3919,-2.3897,-2.3912,-2.3914,-2.3922,-2.3933,-2.3934,-2.3925,-2.3924,-2.3943,-2.3945,-2.3947,-2.3971,-2.3953,-2.3954,-2.3955,-2.4007,-2.4008,-2.4009,0,0,0,0,0,0,-2.3882,-2.3886,-2.3917,-2.3903,-2.3907,-2.3913,-2.3922,-2.3923,-2.3928,-2.3935,-2.3936,-2.3929,-2.3943,-2.3945,-2.3962,-2.3972,-2.3955,-2.3956,-2.4007,-2.4008,-2.4009,-2.4019,0,0,0,0,0,0,-2.3881,-2.3885,-2.3893,-2.3903,-2.3907,-2.3932,-2.3922,-2.3923,-2.393,-2.393,-2.394,-2.3941,-2.3942,-2.396,-2.3964,-2.3973,-2.3957,-2.4006,-2.4007,-2.4008,-2.4018,-2.402,-2.4022,0,0,0,0,0,-2.3879,-2.3894,-2.3893,-2.3897,-2.3917,-2.3932,-2.3935,-2.3937,-2.3931,-2.3939,-2.3944,-2.394,-2.397,-2.3962,-2.3966,-2.3976,-2.4005,-2.4007,-2.4008,-2.4017,-2.4019,-2.4022,0,0,0,0,0,0,-2.3883,-2.3895,-2.3894,-2.3913,-2.3922,-2.3932,-2.3941,-2.394,-2.395,-2.3949,-2.3951,-2.3953,-2.397,-2.3975,-2.3965,-2.3996,-2.3987,-2.3989,-2.3992,-2.3995,-2.3997,-2.3996,-2.3958,0,0,0,0,0,-2.3886,-2.3899,-2.3908,-2.3923,-2.3928,-2.3934,-2.3941,-2.3942,-2.3951,-2.3954,-2.396,-2.3969,-2.3981,-2.3988,-2.3999,-2.4018,-2.4021,-2.4027,-2.403,-2.4031,-2.4033,-2.4045,-2.4048,-2.4014,-2.4014,-2.4014,0,0,-2.3893,-2.3901,-2.3908,-2.3925,-2.3932,-2.3944,-2.3937,-2.395,-2.3959,-2.3956,-2.3973,-2.3978,-2.3988,-2.4006,-2.4015,-2.4011,-2.4044,-2.4033,-2.4035,-2.4036,-2.4047,-2.405,-2.4053,-2.4015,-2.4015,-2.4015,0,0,-2.3911,-2.3918,-2.3932,-2.394,-2.3951,-2.3955,-2.3959,-2.397,-2.3973,-2.399,-2.3988,-2.4,-2.4019,-2.4027,-2.4033,-2.4056,-2.4054,-2.406,-2.4071,-2.4083,-2.4086,-2.4088,-2.4097,-2.41,-2.4062,-2.4062,-2.4062,0,-2.3917,-2.3936,-2.394,-2.3954,-2.3961,-2.396,-2.3975,-2.3982,-2.3996,-2.4002,-2.3997,-2.4023,-2.4029,-2.405,-2.4056,-2.4061,-2.4066,-2.4058,-2.4085,-2.4088,-2.409,-2.4099,-2.4102,-2.4062,-2.4062,-2.4062,-2.4062,0,-2.3944,-2.3957,-2.3968,-2.3983,-2.3992,-2.4006,-2.4011,-2.402,-2.4021,-2.4026,-2.4044,-2.4052,-2.4065,-2.407,-2.407,-2.4092,-2.4089,-2.4085,-2.4076,-2.4094,-2.4102,-2.4105,-2.4063,-2.4063,-2.4063,-2.4063,0,0,-2.3964,-2.3982,-2.3986,-2.3993,-2.4007,-2.4017,-2.4032,-2.4046,-2.4054,-2.4064,-2.4076,-2.4094,-2.4091,-2.4098,-2.4099,-2.411,-2.4129,-2.4104,-2.4105,-2.4109,-2.4154,-2.4157,-2.4161,-2.4128,-2.4128,-2.4129,-2.4153,0,-2.3984,-2.401,-2.4015,-2.4038,-2.4051,-2.4051,-2.4064,-2.4074,-2.4079,-2.4091,-2.4097,-2.4109,-2.4104,-2.4108,-2.4119,-2.4124,-2.4138,-2.4123,-2.414,-2.414,-2.4137,-2.4165,-2.4168,-2.4191,-2.4156,-2.4157,-2.4157,0,-2.401,-2.4022,-2.4047,-2.4061,-2.4066,-2.4078,-2.4092,-2.4103,-2.4115,-2.4118,-2.4127,-2.4128,-2.4144,-2.4135,-2.4157,-2.4146,-2.4154,-2.4158,-2.4159,-2.416,-2.415,-2.4168,-2.4198,-2.4201,-2.4162,-2.4162,-2.4162,0,-2.4023,-2.4046,-2.4064,-2.407,-2.4086,-2.4095,-2.4101,-2.4113,-2.4121,-2.4133,-2.4139,-2.4153,-2.416,-2.4171,-2.4175,-2.4168,-2.4197,-2.4188,-2.42,-2.42,-2.4206,-2.4206,-2.4238,-2.4211,-2.4211,-2.421,-2.421,0,-2.4044,-2.406,-2.407,-2.4082,-2.4099,-2.4105,-2.4122,-2.4128,-2.4139,-2.4151,-2.4152,-2.4164,-2.4169,-2.4182,-2.4186,-2.4204,-2.4207,-2.421,-2.4211,-2.421,-2.421,-2.4215,-2.4213,-2.4211,-2.4211,-2.4211,-2.4211,0,-2.4061,-2.4069,-2.4089,-2.4103,-2.4107,-2.412,-2.4132,-2.4143,-2.4149,-2.4165,-2.4169,-2.4178,-2.4193,-2.4199,-2.4217,-2.422,-2.4241,-2.4241,-2.4238,-2.4238,-2.425,-2.4249,-2.4287,-2.4292,-2.4261,-2.4261,-2.4261,0,-2.4075,-2.4087,-2.4103,-2.4112,-2.412,-2.4134,-2.4144,-2.415,-2.4159,-2.4175,-2.4184,-2.42,-2.4212,-2.4237,-2.4245,-2.4259,-2.4259,-2.4271,-2.4261,-2.426,-2.426,-2.4259,-2.4261,-2.4273,-2.4273,-2.4274,-2.4274,0,-2.4098,-2.4102,-2.4116,-2.4132,-2.4143,-2.4155,-2.4168,-2.4175,-2.4183,-2.4194,-2.421,-2.422,-2.424,-2.4255,-2.4271,-2.4277,-2.4277,-2.4277,-2.4281,-2.428,-2.4278,-2.428,-2.4243,-2.4276,-2.4276,-2.4276,-2.4276,-2.4276,-2.4114,-2.4125,-2.4139,-2.4155,-2.4165,-2.4177,-2.4189,-2.4197,-2.4211,-2.4228,-2.4231,-2.4248,-2.4261,-2.4281,-2.4289,-2.4303,-2.43,-2.4305,-2.4306,-2.4307,-2.4309,-2.4276,-2.4306,-2.4306,-2.4306,-2.4306,-2.4306,0,-2.4138,-2.4147,-2.4162,-2.418,-2.4193,-2.4193,-2.4206,-2.4217,-2.4233,-2.4245,-2.4258,-2.4277,-2.4293,-2.4303,-2.4319,-2.4328,-2.4328,-2.4332,-2.4331,-2.4333,-2.431,-2.4306,-2.4332,-2.4332,-2.4332,-2.4332,-2.4332,-2.4332,-2.4152,-2.4172,-2.4177,-2.4203,-2.4212,-2.423,-2.4238,-2.4249,-2.4259,-2.4281,-2.4295,-2.4301,-2.4313,-2.433,-2.4344,-2.4347,-2.4353,-2.4357,-2.4359,-2.4337,-2.4335,-2.4332,-2.4328,-2.4358,-2.4358,-2.4381,-2.4381,-2.4381]}]]